This is the latest recevied weather packets stored in our database for station/object TA3MHA. If no packets are shown the sender has not sent any weather packets the latest 10 day(s).
| Time | Temp. | Humidity | Pressure | Rain* | Wind** | Luminosity | Snow |
|---|---|---|---|---|---|---|---|
| 1777530600 | 17.22° C | 46% | - | 0 mm | - | 468 W/m² | - |
| 1777530300 | 16.67° C | 49% | - | 0 mm | - | 456 W/m² | - |
| 1777530000 | 16.67° C | 48% | - | 0 mm | - | 438 W/m² | - |
| 1777529701 | 15.56° C | 47% | - | 0 mm | - | 418 W/m² | - |
| 1777529400 | 15.56° C | 49% | - | 0 mm | - | 411 W/m² | - |
| 1777529102 | 15° C | 53% | - | 0 mm | - | 387 W/m² | - |
| 1777528800 | 15° C | 53% | - | 0 mm | - | 375 W/m² | - |
| 1777528500 | 15° C | 55% | - | 0 mm | - | 358 W/m² | - |
| 1777528200 | 14.44° C | 57% | - | 0 mm | - | 343 W/m² | - |
| 1777527901 | 13.89° C | 57% | - | 0 mm | - | 332 W/m² | - |
| 1777527601 | 13.89° C | 57% | - | 0 mm | - | 311 W/m² | - |
| 1777527300 | 14.44° C | 55% | - | 0 mm | - | 297 W/m² | - |
| 1777527000 | 14.44° C | 54% | - | 0 mm | - | 282 W/m² | - |
| 1777526700 | 14.44° C | 58% | - | 0 mm | - | 264 W/m² | - |
| 1777526401 | 13.89° C | 63% | - | 0 mm | - | 250 W/m² | - |
| 1777526100 | 13.33° C | 61% | - | 0 mm | - | 235 W/m² | - |
| 1777525801 | 13.89° C | 65% | - | 0 mm | - | 224 W/m² | - |
| 1777525500 | 13.89° C | 65% | - | 0 mm | - | 208 W/m² | - |
| 1777525201 | 13.33° C | 65% | - | 0 mm | - | 188 W/m² | - |
| 1777524901 | 13.33° C | 64% | - | 0 mm | - | 172 W/m² | - |
| 1777524601 | 13.33° C | 65% | - | 0 mm | - | 155 W/m² | - |
| 1777524301 | 12.22° C | 68% | - | 0 mm | - | 144 W/m² | - |
| 1777524001 | 11.11° C | 73% | - | 0 mm | - | 127 W/m² | - |
| 1777523701 | 10.56° C | 74% | - | 0 mm | - | 117 W/m² | - |
| 1777523400 | 10.56° C | 72% | - | 0 mm | - | 106 W/m² | - |
* Rain latest hour (hover to see other rain measurements)
** Current wind speed in m/s (hover to see current wind gust speed)